Fort Polk, LA

1:47 AM CDT on May 25, 2017 (GMT -0500)
Fort Polk

Weather History for KAQV - September, 2013

Change the Weather History Date:

Wednesday, September 11, 2013

  Actual Average (KPOE) Record (KPOE)
Temperature  
Mean Temperature 82 °F -  
Max Temperature 93 °F 87 °F 96 °F (2002)
Min Temperature 71 °F 67 °F 61 °F (2012)
Cooling Degree Days 17    
Growing Degree Days 32 (Base 50)    
Moisture  
Dew Point 67 °F    
Average Humidity 66    
Maximum Humidity 94    
Minimum Humidity 36    
Precipitation  
Precipitation 0.00 in - - ()
Sea Level Pressure  
Sea Level Pressure 30.06 in    
Wind  
Wind Speed 1 mph (ENE)    
Max Wind Speed 8 mph    
Max Gust Speed -    
Visibility 8 miles    
Events      
Averages and records for this station are not official NWS values.
T = Trace of Precipitation, MM = Missing Value Source: NWS Daily Summary

Daily Weather History Graph

Daily Weather History Graph

Search for Another Location

Airport or City:

Trip Planner

Search our weather history database for the weather conditions in past years. The results will help you decide how hot, cold, wet, or windy it might be!

Date:

Astronomy

Sep. 11, 2013 Rise Set
Actual Time 6:55 AM CDT 7:23 PM CDT
Civil Twilight 6:30 AM CDT 7:48 PM CDT
Nautical Twilight 6:02 AM CDT 8:16 PM CDT
Astronomical Twilight 5:32 AM CDT 8:45 PM CDT
Moon 12:59 PM CDT (9/11) 11:44 PM CDT (9/11)
Length of Visible Light 13h 17m
Length of Day
12h 28m
Waxing Crescent, 39% of the Moon is Illuminated
Sep 11
Waxing Crescent
Sep 12
First Quarter
Sep 19
Full
Sep 26
Last Quarter
Oct 4
New

Hourly Weather History & Observations

Time (CDT) Temp. Heat Index Dew Point Humidity Pressure Visibility Wind Dir Wind Speed Gust Speed Precip Events Conditions
12:56 AM 75.0 °F - 69.1 °F 82% 30.06 in 10.0 mi Calm Calm - N/A   Clear
1:56 AM 73.9 °F - 69.1 °F 85% 30.06 in 9.0 mi Calm Calm - N/A   Clear
2:56 AM 73.9 °F - 69.1 °F 85% 30.07 in 9.0 mi Calm Calm - N/A   Clear
3:56 AM 73.0 °F - 69.1 °F 87% 30.06 in 8.0 mi Calm Calm - N/A   Partly Cloudy
4:56 AM 71.1 °F - 68.0 °F 90% 30.07 in 5.0 mi Calm Calm - N/A   Clear
5:56 AM 72.0 °F - 69.1 °F 91% 30.08 in 7.0 mi Calm Calm - N/A   Partly Cloudy
6:56 AM 71.1 °F - 69.1 °F 93% 30.09 in 4.0 mi Calm Calm - N/A   Clear
7:18 AM 71.6 °F - 69.8 °F 94% 30.10 in 1.8 mi Calm Calm - N/A   Clear
7:30 AM 73.4 °F - 69.8 °F 88% 30.11 in 3.0 mi Calm Calm - N/A   Clear
7:56 AM 75.9 °F - 70.0 °F 82% 30.10 in 6.0 mi Calm Calm - N/A   Haze
8:56 AM 80.1 °F 83.6 °F 71.1 °F 74% 30.11 in 10.0 mi ENE 4.6 mph - N/A   Scattered Clouds
9:56 AM 84.9 °F 90.7 °F 72.0 °F 65% 30.12 in 10.0 mi Variable 3.5 mph - N/A   Partly Cloudy
10:56 AM 89.1 °F 93.7 °F 69.1 °F 52% 30.11 in 10.0 mi ENE 6.9 mph - N/A   Partly Cloudy
11:56 AM 90.0 °F 92.4 °F 66.0 °F 45% 30.10 in 10.0 mi Variable 6.9 mph - N/A   Mostly Cloudy
12:56 PM 93.0 °F 94.6 °F 64.0 °F 38% 30.09 in 10.0 mi Variable 3.5 mph - N/A   Scattered Clouds
1:56 PM 93.9 °F 96.1 °F 64.9 °F 38% 30.06 in 10.0 mi ENE 8.1 mph - N/A   Mostly Cloudy
2:56 PM 93.9 °F 97.0 °F 66.0 °F 40% 30.03 in 10.0 mi Variable 6.9 mph - N/A   Scattered Clouds
3:56 PM 93.0 °F 94.6 °F 64.0 °F 38% 30.01 in 10.0 mi Calm Calm - N/A   Partly Cloudy
4:56 PM 91.9 °F 92.9 °F 63.0 °F 38% 30.01 in 10.0 mi Variable 3.5 mph - N/A   Mostly Cloudy
5:56 PM 93.0 °F 93.8 °F 62.1 °F 36% 30.00 in 10.0 mi Variable 4.6 mph - N/A   Clear
6:56 PM 90.0 °F 90.0 °F 61.0 °F 38% 30.00 in 10.0 mi Calm Calm - N/A   Clear
7:56 PM 82.9 °F 84.0 °F 63.0 °F 51% 30.01 in 10.0 mi Calm Calm - N/A   Clear
8:56 PM 78.1 °F - 64.0 °F 62% 30.03 in 10.0 mi Calm Calm - N/A   Clear
9:56 PM 75.0 °F - 64.9 °F 71% 30.05 in 9.0 mi Calm Calm - N/A   Clear
10:56 PM 73.9 °F - 64.9 °F 73% 30.04 in 10.0 mi Calm Calm - N/A   Clear
11:56 PM 72.0 °F - 64.9 °F 78% 30.04 in 10.0 mi Calm Calm - N/A   Clear